TimeEST,TemperatureF,Dew PointF,Humidity,Sea Level PressureIn,VisibilityMPH,Wind Direction,Wind SpeedMPH,Gust SpeedMPH,PrecipitationIn,Events,Conditions,WindDirDegrees,DateUTC
12:54 AM,43.0,30.0,60,30.25,10.0,NNE,8.1,-,N/A,,Clear,20,2012-12-06 05:54:00
1:54 AM,43.0,30.0,60,30.27,10.0,NNE,5.8,-,N/A,,Clear,20,2012-12-06 06:54:00
2:54 AM,41.0,28.9,62,30.29,10.0,North,4.6,-,N/A,,Clear,360,2012-12-06 07:54:00
3:54 AM,39.0,28.0,65,30.30,10.0,North,4.6,-,N/A,,Clear,10,2012-12-06 08:54:00
4:54 AM,39.9,28.9,65,30.30,10.0,NE,4.6,-,N/A,,Clear,50,2012-12-06 09:54:00
5:54 AM,37.0,28.0,70,30.32,10.0,North,4.6,-,N/A,,Clear,350,2012-12-06 10:54:00
6:54 AM,35.1,27.0,72,30.34,10.0,North,4.6,-,N/A,,Clear,360,2012-12-06 11:54:00
7:54 AM,36.0,28.0,73,30.35,10.0,North,5.8,-,N/A,,Clear,10,2012-12-06 12:54:00
8:54 AM,43.0,28.9,58,30.36,10.0,NE,10.4,-,N/A,,Clear,40,2012-12-06 13:54:00
9:54 AM,44.1,28.9,55,30.38,10.0,NE,8.1,17.3,N/A,,Clear,50,2012-12-06 14:54:00
10:54 AM,44.1,27.0,51,30.36,10.0,NE,9.2,-,N/A,,Clear,40,2012-12-06 15:54:00
11:54 AM,45.0,27.0,49,30.36,10.0,NE,8.1,-,N/A,,Clear,40,2012-12-06 16:54:00
12:54 PM,46.0,27.0,47,30.33,10.0,East,5.8,-,N/A,,Clear,90,2012-12-06 17:54:00
1:54 PM,46.0,28.9,51,30.31,10.0,ENE,5.8,-,N/A,,Clear,60,2012-12-06 18:54:00
2:54 PM,45.0,30.0,56,30.30,10.0,ENE,4.6,-,N/A,,Clear,70,2012-12-06 19:54:00
3:54 PM,44.1,30.0,58,30.31,10.0,ENE,5.8,-,N/A,,Clear,60,2012-12-06 20:54:00
4:54 PM,39.9,30.0,68,30.30,10.0,East,3.5,-,N/A,,Clear,100,2012-12-06 21:54:00
5:54 PM,37.0,28.0,70,30.30,10.0,Calm,Calm,-,N/A,,Clear,0,2012-12-06 22:54:00
6:54 PM,35.1,28.9,78,30.31,10.0,Calm,Calm,-,N/A,,Clear,0,2012-12-06 23:54:00
7:54 PM,33.1,28.0,82,30.30,10.0,ENE,3.5,-,N/A,,Clear,70,2012-12-07 00:54:00
8:54 PM,33.1,28.9,85,30.29,8.0,ENE,4.6,-,N/A,,Clear,70,2012-12-07 01:54:00
9:54 PM,35.1,30.0,82,30.29,10.0,Calm,Calm,-,N/A,,Clear,0,2012-12-07 02:54:00
10:54 PM,34.0,28.9,82,30.29,9.0,Calm,Calm,-,N/A,,Clear,0,2012-12-07 03:54:00
11:54 PM,33.1,28.9,85,30.26,9.0,Calm,Calm,-,N/A,,Clear,0,2012-12-07 04:54:00